Tyler Pounds Regional Airport Tyler US
ICAO: KTYR
IATA: TYR
Category: Medium
Scheduled Services: Yes

Elevation: 544 ft
TransAlt. 18000 ft.

Airport Communications:
LONGVIEW APP/DEP:128.75
ATIS:126.25
CTAF:120.1
GND:121.9
FORT WORTH RDO:122.3
TWR:120.1
UNICOM:122.95

KTYR Zoom In..

Runways:

(A) RW 04 length 7802 ft width 150 ft
---- / hdg 42

(B) RW 13 length 5200 ft width 150 ft
ILS 109.90 / hdg 132

(C) RW 17 length 4832 ft width 150 ft
---- / hdg 177

(D) RW 22 length 7802 ft width 150 ft
---- / hdg 222

(E) RW 31 length 5200 ft width 150 ft
---- / hdg 312

(F) RW 35 length 4832 ft width 150 ft
---- / hdg 357

Location; KTYR
Day. 13 / Time. 12.53 Zulu
* Altimeter: 29.90
* Temperature: 28° c. 82.4°f.
* Wind from: KTY° Speed R kn.
Dewpoint: 24° c.
Visibility: 10 Statute Miles.
Clouds: Clear (automated report).

KTYR 131253Z 23006KT 10SM CLR 28/24 A2990 RMK AO2 SLP117 T02830239

Going to: --> -->


Wind From KTY°
Speed R kn.

 
 
jpsmedia worldairports.se 2020   terms of use